When you browse on this site, cookies collect data to enhance your experience and personalize the content and advertising you see.
Visit our Privacy Policy to learn more. By continuing to use the site, you agree to this use of cookies and data.
  • In Sweden
  • List of Countries
  • For 7 days
  • Water Temperature
  • Satellite Maps
  • Weather Map
  • Weather Widgets
  • user-avatar
    Login

    Hourly Weather Montana

    Today, 21 November, Wednesday

    Time Temperature Precipitation Wind Pressure Humidity
    00:00 +3°C° 0.2 mm 2 mps 733 mmHg 97%
    01:00 +3°C° 0.2 mm 2 mps 733 mmHg 97%
    02:00 +3°C° 0.2 mm 2 mps 733 mmHg 97%
    03:00 +3°C° 0.2 mm 2 mps 732 mmHg 97%
    04:00 +3°C° 0.2 mm 2 mps 732 mmHg 97%
    05:00 +3°C° 0.2 mm 2 mps 732 mmHg 97%
    06:00 +3°C° 1.7 mm 2 mps 732 mmHg 97%
    07:00 +3°C° 1.7 mm 2 mps 731 mmHg 97%
    08:00 +3°C° 1.7 mm 2 mps 731 mmHg 97%
    09:00 +3°C° 1.5 mm 2 mps 732 mmHg 97%
    10:00 +3°C° 1.5 mm 2 mps 732 mmHg 96%
    11:00 +3°C° 1.5 mm 2 mps 732 mmHg 96%
    12:00 +3°C° 0.5 mm 2 mps 732 mmHg 96%
    13:00 +3°C° 0.5 mm 2 mps 732 mmHg 95%
    14:00 +3°C° 0.5 mm 2 mps 732 mmHg 95%
    15:00 +4°C° 0.3 mm 1 mps 733 mmHg 95%
    16:00 +4°C° 0.3 mm 1 mps 733 mmHg 95%
    17:00 +4°C° 0.3 mm 1 mps 734 mmHg 95%
    18:00 +4°C° 0.3 mm 1 mps 734 mmHg 95%
    19:00 +4°C° 0.3 mm 1 mps 734 mmHg 95%
    20:00 +4°C° 0.3 mm 1 mps 735 mmHg 95%
    21:00 +4°C° 0.2 mm 1 mps 735 mmHg 95%
    22:00 +4°C° 0.2 mm 1 mps 735 mmHg 95%
    23:00 +4°C° 0.2 mm 1 mps 736 mmHg 95%

    Tomorrow, 22 November, Thursday

    Time Temperature Precipitation Wind Pressure Humidity
    00:00 +4°C° 0.1 mm 1 mps 736 mmHg 95%
    01:00 +4°C° 0.1 mm 1 mps 736 mmHg 95%
    02:00 +3°C° 0.1 mm 1 mps 736 mmHg 96%
    03:00 +3°C° 0.1 mm 1 mps 736 mmHg 96%
    04:00 +3°C° 0.1 mm 1 mps 737 mmHg 96%
    05:00 +3°C° 0.1 mm 1 mps 737 mmHg 96%
    06:00 +3°C° 0.1 mm 1 mps 737 mmHg 95%
    07:00 +3°C° 0.1 mm 1 mps 737 mmHg 95%
    08:00 +3°C° 0.1 mm 1 mps 738 mmHg 95%
    09:00 +4°C° 0.1 mm 1 mps 738 mmHg 92%
    10:00 +5°C° 0.1 mm 1 mps 738 mmHg 90%
    11:00 +4°C° 0.1 mm 2 mps 738 mmHg 87%
    12:00 +5°C° 0.1 mm 2 mps 738 mmHg 86%
    13:00 +5°C° 0.1 mm 2 mps 738 mmHg 85%
    14:00 +5°C° 0.1 mm 2 mps 738 mmHg 84%
    15:00 +5°C° 0.1 mm 2 mps 738 mmHg 86%
    16:00 +5°C° 0.1 mm 1 mps 738 mmHg 88%
    17:00 +5°C° 0.1 mm 1 mps 739 mmHg 90%
    18:00 +5°C° 0.1 mm 1 mps 739 mmHg 91%
    19:00 +4°C° 0.1 mm 1 mps 739 mmHg 92%
    20:00 +4°C° 0.1 mm 1 mps 740 mmHg 93%
    21:00 +4°C° 0 mm 1 mps 740 mmHg 93%
    22:00 +4°C° 0 mm 1 mps 740 mmHg 93%
    23:00 +3°C° 0 mm 1 mps 740 mmHg 94%

    Day after tomorrow, 23 November, Friday

    Time Temperature Precipitation Wind Pressure Humidity
    00:00 +3°C° 0 mm 1 mps 740 mmHg 94%
    01:00 +3°C° 0 mm 1 mps 741 mmHg 94%
    02:00 +3°C° 0 mm 1 mps 741 mmHg 94%
    03:00 +3°C° 0 mm 1 mps 741 mmHg 94%
    04:00 +3°C° 0 mm 1 mps 741 mmHg 94%
    05:00 +3°C° 0 mm 1 mps 741 mmHg 94%
    06:00 +3°C° 0 mm 1 mps 741 mmHg 94%
    07:00 +3°C° 0 mm 1 mps 742 mmHg 94%
    08:00 +3°C° 0 mm 1 mps 742 mmHg 93%
    09:00 +4°C° 0 mm 1 mps 742 mmHg 89%
    10:00 +5°C° 0 mm 1 mps 742 mmHg 85%
    11:00 +6°C° 0 mm 1 mps 743 mmHg 81%
    12:00 +7°C° 0 mm 1 mps 742 mmHg 79%
    13:00 +7°C° 0 mm 1 mps 742 mmHg 77%
    14:00 +8°C° 0 mm 1 mps 742 mmHg 75%
    15:00 +7°C° 0 mm 1 mps 742 mmHg 77%
    16:00 +7°C° 0 mm 1 mps 742 mmHg 80%
    17:00 +6°C° 0 mm 1 mps 742 mmHg 83%
    18:00 +5°C° 0 mm 1 mps 742 mmHg 83%
    19:00 +5°C° 0 mm 1 mps 742 mmHg 84%
    20:00 +4°C° 0 mm 1 mps 743 mmHg 85%
    21:00 +4°C° 0 mm 1 mps 743 mmHg 85%
    22:00 +4°C° 0 mm 1 mps 743 mmHg 85%
    23:00 +3°C° 0 mm 1 mps 743 mmHg 85%

    24 November, Saturday

    Time Temperature Precipitation Wind Pressure Humidity
    00:00 +3°C° 0 mm 1 mps 743 mmHg 86%
    01:00 +3°C° 0 mm 1 mps 742 mmHg 86%
    02:00 +3°C° 0 mm 1 mps 742 mmHg 86%
    03:00 +3°C° 0 mm 1 mps 742 mmHg 87%
    04:00 +2°C° 0 mm 1 mps 742 mmHg 87%
    05:00 +2°C° 0 mm 1 mps 741 mmHg 88%
    06:00 +2°C° 0 mm 1 mps 741 mmHg 88%
    07:00 +2°C° 0 mm 1 mps 741 mmHg 88%
    08:00 +2°C° 0 mm 1 mps 741 mmHg 87%
    09:00 +4°C° 0 mm 1 mps 741 mmHg 82%
    10:00 +5°C° 0 mm 1 mps 740 mmHg 76%
    11:00 +7°C° 0 mm 1 mps 740 mmHg 71%
    12:00 +8°C° 0 mm 1 mps 740 mmHg 68%
    13:00 +8°C° 0 mm 1 mps 739 mmHg 66%
    14:00 +9°C° 0 mm 1 mps 739 mmHg 64%
    15:00 +8°C° 0 mm 1 mps 738 mmHg 67%
    16:00 +7°C° 0 mm 1 mps 738 mmHg 70%
    17:00 +6°C° 0 mm 1 mps 738 mmHg 74%
    18:00 +6°C° 0 mm 1 mps 738 mmHg 74%
    19:00 +6°C° 0 mm 1 mps 738 mmHg 75%
    20:00 +6°C° 0 mm 1 mps 738 mmHg 76%
    21:00 +5°C° 0 mm 1 mps 738 mmHg 77%
    22:00 +5°C° 0 mm 1 mps 738 mmHg 77%
    23:00 +5°C° 0 mm 1 mps 737 mmHg 78%

    25 November, Sunday

    Time Temperature Precipitation Wind Pressure Humidity
    00:00 +5°C° 0 mm 1 mps 737 mmHg 79%
    01:00 +5°C° 0 mm 1 mps 737 mmHg 79%
    02:00 +5°C° 0 mm 1 mps 737 mmHg 80%
    03:00 +4°C° 0 mm 1 mps 737 mmHg 80%
    04:00 +4°C° 0 mm 1 mps 736 mmHg 81%
    05:00 +4°C° 0 mm 1 mps 736 mmHg 81%
    06:00 +4°C° 0 mm 1 mps 736 mmHg 81%
    07:00 +4°C° 0 mm 1 mps 736 mmHg 81%
    08:00 +4°C° 0 mm 1 mps 735 mmHg 81%
    09:00 +6°C° 0 mm 1 mps 735 mmHg 77%
    10:00 +8°C° 0 mm 1 mps 735 mmHg 73%
    11:00 +10°C° 0 mm 1 mps 735 mmHg 68%
    12:00 +11°C° 0 mm 1 mps 734 mmHg 67%
    13:00 +11°C° 0 mm 1 mps 734 mmHg 65%
    14:00 +12°C° 0 mm 1 mps 733 mmHg 63%
    15:00 +11°C° 0 mm 1 mps 733 mmHg 67%
    16:00 +10°C° 0 mm 1 mps 733 mmHg 70%
    17:00 +9°C° 0 mm 1 mps 733 mmHg 74%
    18:00 +9°C° 0 mm 1 mps 733 mmHg 76%
    19:00 +9°C° 0 mm 1 mps 733 mmHg 77%
    20:00 +8°C° 0 mm 1 mps 733 mmHg 79%
    21:00 +8°C° 0 mm 1 mps 732 mmHg 80%
    22:00 +8°C° 0 mm 1 mps 732 mmHg 81%
    23:00 +8°C° 0 mm 1 mps 732 mmHg 82%

    26 November, Monday

    Time Temperature Precipitation Wind Pressure Humidity
    00:00 +8°C° 0.1 mm 1 mps 732 mmHg 82%
    01:00 +8°C° 0.1 mm 1 mps 732 mmHg 83%
    02:00 +8°C° 0.1 mm 1 mps 732 mmHg 84%
    03:00 +8°C° 0.4 mm 1 mps 731 mmHg 86%
    04:00 +8°C° 0.4 mm 1 mps 731 mmHg 88%
    05:00 +8°C° 0.4 mm 1 mps 731 mmHg 89%
    06:00 +8°C° 0.3 mm 1 mps 731 mmHg 90%
    07:00 +8°C° 0.3 mm 1 mps 731 mmHg 90%
    08:00 +8°C° 0.3 mm 1 mps 730 mmHg 91%
    09:00 +10°C° 0 mm 1 mps 731 mmHg 86%
    10:00 +11°C° 0 mm 1 mps 731 mmHg 81%
    11:00 +11°C° 0 mm 0 mps 731 mmHg 76%
    12:00 +13°C° 0 mm 1 mps 730 mmHg 73%
    13:00 +13°C° 0 mm 1 mps 730 mmHg 71%
    14:00 +14°C° 0 mm 1 mps 729 mmHg 68%
    15:00 +13°C° 0 mm 1 mps 729 mmHg 73%
    16:00 +12°C° 0 mm 1 mps 729 mmHg 77%
    17:00 +11°C° 0 mm 1 mps 729 mmHg 82%
    18:00 +10°C° 0 mm 1 mps 729 mmHg 83%
    19:00 +10°C° 0 mm 1 mps 730 mmHg 85%
    20:00 +10°C° 0 mm 1 mps 730 mmHg 86%
    21:00 +10°C° 0 mm 1 mps 730 mmHg 86%
    22:00 +10°C° 0 mm 1 mps 730 mmHg 85%
    23:00 +9°C° 0 mm 1 mps 730 mmHg 85%
    Show more